[[{"header":{"parameterUnit":"m.s-1","parameterCategory":1,"la1":30.2991,"la2":30.254,"lo1":-89.0895,"lo2":-89.0444,"dy":0.0017,"dx":0.0017,"nx":28,"ny":28,"refTime":"2025-04-15T21:00:00:Z","depth":0,"parameterNumber":2,"parameterNumberName":"U-component_of_WINDS"},"data":[0,0,0,0,0,0,0,0,0,0,0,0,0,0,0,0,0,0,0,0,0,0,0,0,0,0,0,0,0,0,0,0,0,0,0,0,0,0,0,0,0,0,0,0,0,0,0,0,0,0,0,0,0,0,0,0,0,0,0.8828,0.8828,0,0.8876,0.8876,0.8877,0.8896,0.8896,0.8895,0.8895,0.8942,0.8943,0.8945,0,0,0,0,0,0,0,0,0,0,0,0,0,0.8752,0.8753,0.8828,0.8829,0.8829,0.8876,0.8876,0.8877,0.8896,0.8896,0.8895,0.8895,0.8942,0.8943,0.8945,0,0,0,0,0,0,0,0,0,0,0,0,0,0.8791,0.8754,0.8828,0.8844,0.8846,0.8875,0.8876,0.8877,0.8896,0.8896,0.8895,0.8895,0.8941,0.8943,0.8945,0.8961,0,0,0.8951,0.8952,0,0,0,0,0,0,0,0,0.8789,0.8794,0.8841,0.8843,0.8845,0.888,0.8867,0.8905,0.8896,0.8877,0.8895,0.8895,0.8921,0.8925,0.8934,0.8963,0.8965,0.8952,0.8953,0.8954,0.8954,0,0,0,0,0,0,0,0.8786,0.8792,0.8847,0.8842,0.8844,0.8849,0.8854,0.8874,0.8899,0.8878,0.888,0.8885,0.8922,0.8932,0.8935,0.8966,0.8952,0.8953,0.8955,0.8955,0.9011,0.9012,0,0,0,0,0,0,0.8781,0.8789,0.8845,0.8848,0.8816,0.885,0.8856,0.8869,0.8899,0.8904,0.8886,0.8886,0.8929,0.8933,0.8937,0.8958,0.8954,0.8956,0.8957,0.9011,0.9011,0.9012,0,0,0,0,0,0,0.8779,0.8786,0.8843,0.8819,0.8827,0.8852,0.8866,0.887,0.888,0.8905,0.8909,0.8891,0.8929,0.8934,0.8955,0.896,0.8956,0.8958,0.9011,0.9011,0.9012,0.9001,0,0,0,0,0,0,0.8777,0.8785,0.8791,0.8819,0.8828,0.8861,0.8866,0.8871,0.8883,0.8885,0.8911,0.8915,0.8929,0.8952,0.8957,0.8963,0.896,0.901,0.9011,0.9011,0.9001,0.9,0.9,0,0,0,0,0,0.8774,0.8786,0.8792,0.8798,0.8837,0.8861,0.8866,0.8883,0.8884,0.889,0.8906,0.8914,0.8959,0.8954,0.896,0.8966,0.901,0.9011,0.9011,0.9001,0.9,0.9,0,0,0,0,0,0,0.8757,0.879,0.8797,0.8818,0.8837,0.8864,0.8873,0.8882,0.8901,0.8901,0.892,0.8926,0.8945,0.8958,0.8952,0.8984,0.8985,0.8987,0.8975,0.8975,0.8975,0.8971,0.8962,0,0,0,0,0,0.8756,0.8773,0.8801,0.8817,0.8826,0.8848,0.8859,0.887,0.889,0.8898,0.8916,0.8935,0.8953,0.8965,0.8983,0.9003,0.9009,0.901,0.901,0.901,0.9011,0.9023,0.9024,0.9014,0.9014,0.9014,0,0,0.8753,0.8773,0.8783,0.8814,0.883,0.8847,0.8855,0.8872,0.8886,0.8901,0.8922,0.8936,0.8958,0.8979,0.8988,0.899,0.9015,0.901,0.901,0.9012,0.9023,0.9024,0.9025,0.9014,0.9014,0.9014,0,0,0.8758,0.8775,0.879,0.8806,0.8831,0.8846,0.8849,0.8876,0.8886,0.8908,0.892,0.8935,0.8966,0.8982,0.8994,0.9005,0.9013,0.9011,0.901,0.9022,0.9022,0.9023,0.9028,0.9029,0.9012,0.9012,0.9012,0,0.8751,0.8779,0.8797,0.8815,0.8828,0.8844,0.8859,0.8874,0.8903,0.8911,0.8913,0.8953,0.8969,0.8993,0.8996,0.9005,0.901,0.9008,0.9021,0.9022,0.9023,0.9027,0.9029,0.9012,0.9012,0.9012,0.9012,0,0.877,0.8789,0.8798,0.8827,0.8841,0.8857,0.8878,0.889,0.8901,0.8915,0.8937,0.8957,0.898,0.8987,0.8996,0.9013,0.9013,0.9017,0.9019,0.9023,0.9028,0.9029,0.9011,0.9011,0.9011,0.9011,0,0,0.8764,0.8803,0.8807,0.882,0.8849,0.8863,0.8881,0.8904,0.8914,0.8933,0.8949,0.8975,0.898,0.8993,0.9005,0.9015,0.9023,0.9018,0.9019,0.9018,0.9043,0.9039,0.9041,0.9029,0.9029,0.9029,0.9041,0,0.8773,0.8805,0.8823,0.8847,0.8865,0.8881,0.8896,0.8915,0.8929,0.8946,0.8961,0.898,0.8984,0.8993,0.9003,0.902,0.9028,0.9019,0.9043,0.9043,0.9036,0.9043,0.904,0.905,0.9043,0.9043,0.9043,0,0.8787,0.8807,0.8834,0.8861,0.8869,0.8883,0.8906,0.8922,0.8944,0.8953,0.8969,0.8981,0.8999,0.9,0.9026,0.902,0.903,0.904,0.9041,0.9043,0.9043,0.9046,0.9053,0.9055,0.9046,0.9046,0.9046,0,0.878,0.8814,0.8835,0.8846,0.8878,0.8887,0.8901,0.8923,0.8936,0.8956,0.8965,0.8986,0.8998,0.9014,0.9031,0.903,0.9056,0.9058,0.9065,0.9064,0.9069,0.9068,0.9078,0.9076,0.9076,0.9076,0.9076,0,0.8788,0.8804,0.8833,0.8845,0.8864,0.8884,0.8901,0.8916,0.8935,0.8951,0.8966,0.898,0.9002,0.9019,0.9033,0.9053,0.9058,0.9066,0.9069,0.9065,0.9064,0.9072,0.9071,0.9076,0.9076,0.9076,0.9076,0,0.8784,0.8804,0.8827,0.8856,0.8864,0.8876,0.8901,0.8914,0.8929,0.8949,0.8954,0.8978,0.8999,0.9018,0.9046,0.9055,0.9075,0.9079,0.9068,0.907,0.9075,0.9075,0.909,0.9094,0.9089,0.9089,0.9089,0,0.8787,0.88,0.8831,0.8843,0.8856,0.8875,0.8889,0.8909,0.8923,0.8949,0.8959,0.8981,0.9,0.9032,0.9052,0.9073,0.9078,0.9082,0.9081,0.9076,0.9078,0.9077,0.9079,0.9082,0.9082,0.9082,0.9082,0,0.8792,0.8801,0.882,0.8844,0.886,0.8879,0.8898,0.8907,0.8931,0.8945,0.8967,0.8982,0.9011,0.9033,0.9056,0.907,0.908,0.9082,0.9085,0.908,0.9073,0.9077,0.9067,0.9081,0.9081,0.9082,0.9082,0.9082,0.8792,0.8804,0.8828,0.8849,0.8866,0.8884,0.8898,0.8915,0.8934,0.8959,0.897,0.8992,0.9014,0.9047,0.9061,0.9079,0.9081,0.9085,0.9086,0.9086,0.9086,0.907,0.9083,0.9083,0.9083,0.9083,0.9083,0,0.8797,0.8813,0.8832,0.886,0.8876,0.8885,0.8907,0.892,0.894,0.896,0.8979,0.9005,0.9026,0.9048,0.907,0.908,0.9085,0.9086,0.9085,0.9088,0.9082,0.9078,0.9081,0.9081,0.9081,0.9081,0.9081,0.9081,0.8801,0.8823,0.8835,0.8865,0.8881,0.8904,0.8916,0.8933,0.8949,0.8977,0.8995,0.9009,0.903,0.9055,0.9075,0.9081,0.9088,0.9087,0.9094,0.9088,0.9088,0.9088,0.9084,0.9089,0.9089,0.9098,0.9098,0.9098]},{"header":{"parameterUnit":"m.s-1","parameterCategory":1,"la1":30.2991,"la2":30.254,"lo1":-89.0895,"lo2":-89.0444,"dy":0.0017,"dx":0.0017,"nx":28,"ny":28,"refTime":"2025-04-15T21:00:00:Z","depth":0,"parameterNumber":3,"parameterNumberName":"V-component_of_WINDS"},"data":[0,0,0,0,0,0,0,0,0,0,0,0,0,0,0,0,0,0,0,0,0,0,0,0,0,0,0,0,0,0,0,0,0,0,0,0,0,0,0,0,0,0,0,0,0,0,0,0,0,0,0,0,0,0,0,0,0,0,-4.1117,-4.1118,0,-4.118,-4.1181,-4.1181,-4.1121,-4.1118,-4.1116,-4.1114,-4.1174,-4.1178,-4.1182,0,0,0,0,0,0,0,0,0,0,0,0,0,-4.0942,-4.0945,-4.1117,-4.1118,-4.1119,-4.118,-4.1181,-4.1181,-4.1121,-4.1118,-4.1115,-4.1113,-4.1173,-4.1177,-4.1182,0,0,0,0,0,0,0,0,0,0,0,0,0,-4.1012,-4.0946,-4.1117,-4.1096,-4.1095,-4.118,-4.1181,-4.1182,-4.1122,-4.1118,-4.1115,-4.1111,-4.1171,-4.1177,-4.1183,-4.129,0,0,-4.12,-4.1203,0,0,0,0,0,0,0,0,-4.1008,-4.1019,-4.1098,-4.1098,-4.1096,-4.1139,-4.1141,-4.1218,-4.1123,-4.1112,-4.1114,-4.111,-4.1165,-4.1171,-4.1191,-4.1293,-4.1295,-4.1201,-4.1204,-4.1207,-4.1208,0,0,0,0,0,0,0,-4.1004,-4.1016,-4.1142,-4.1099,-4.1098,-4.1082,-4.1089,-4.1155,-4.1157,-4.1112,-4.1108,-4.1116,-4.1164,-4.1185,-4.1192,-4.1296,-4.1201,-4.1206,-4.1209,-4.1212,-4.1491,-4.1495,0,0,0,0,0,0,-4.1002,-4.1012,-4.114,-4.1144,-4.1043,-4.1089,-4.1095,-4.1129,-4.1157,-4.1158,-4.1119,-4.1113,-4.1177,-4.1185,-4.1194,-4.1322,-4.1207,-4.1212,-4.1215,-4.1487,-4.1492,-4.1496,0,0,0,0,0,0,-4.0998,-4.1013,-4.1137,-4.1077,-4.1091,-4.1095,-4.1133,-4.1132,-4.1153,-4.1162,-4.1162,-4.1141,-4.1175,-4.1185,-4.1267,-4.1323,-4.1215,-4.122,-4.1482,-4.1488,-4.1494,-4.158,0,0,0,0,0,0,-4.0993,-4.1013,-4.1054,-4.1078,-4.1095,-4.1211,-4.1137,-4.1136,-4.1164,-4.1157,-4.1183,-4.1183,-4.1173,-4.1259,-4.1273,-4.1329,-4.1224,-4.1477,-4.1485,-4.1492,-4.1572,-4.1588,-4.1602,0,0,0,0,0,-4.0987,-4.1074,-4.1056,-4.1072,-4.1147,-4.1214,-4.1224,-4.1211,-4.1169,-4.121,-4.1216,-4.1182,-4.1315,-4.1268,-4.1283,-4.1342,-4.1474,-4.1483,-4.1491,-4.1565,-4.1585,-4.1601,0,0,0,0,0,0,-4.1055,-4.1077,-4.1057,-4.1155,-4.1184,-4.1204,-4.1256,-4.1232,-4.1271,-4.1262,-4.1244,-4.125,-4.1337,-4.1347,-4.1294,-4.1448,-4.1387,-4.14,-4.1438,-4.1457,-4.1471,-4.1467,-4.1229,0,0,0,0,0,-4.1082,-4.1136,-4.1151,-4.1236,-4.1252,-4.1252,-4.128,-4.1268,-4.1296,-4.1307,-4.1319,-4.1346,-4.1394,-4.1426,-4.147,-4.1573,-4.1578,-4.1621,-4.1636,-4.1648,-4.1659,-4.1716,-4.1735,-4.1525,-4.1525,-4.1525,0,0,-4.1136,-4.1155,-4.119,-4.125,-4.1271,-4.1327,-4.1262,-4.1323,-4.1364,-4.1316,-4.1395,-4.1404,-4.1433,-4.1527,-4.1568,-4.1538,-4.1718,-4.1659,-4.1669,-4.1674,-4.1727,-4.1747,-4.1764,-4.1531,-4.153,-4.1529,0,0,-4.1265,-4.1285,-4.1359,-4.1381,-4.1414,-4.1413,-4.1431,-4.1456,-4.1461,-4.154,-4.1505,-4.1553,-4.1635,-4.1658,-4.168,-4.182,-4.1791,-4.1835,-4.1912,-4.1967,-4.1984,-4.1999,-4.2049,-4.2068,-4.1845,-4.1846,-4.1846,0,-4.1329,-4.1413,-4.1399,-4.1464,-4.1491,-4.1452,-4.1527,-4.1548,-4.1593,-4.1613,-4.1579,-4.1683,-4.1699,-4.1798,-4.1833,-4.1851,-4.1871,-4.1832,-4.1983,-4.1997,-4.2011,-4.2059,-4.2078,-4.1851,-4.185,-4.185,-4.1849,0,-4.149,-4.1549,-4.1604,-4.1651,-4.1685,-4.1754,-4.175,-4.1785,-4.1771,-4.1774,-4.1855,-4.1874,-4.1922,-4.1944,-4.193,-4.2042,-4.2022,-4.1986,-4.1925,-4.2036,-4.2081,-4.21,-4.1858,-4.1856,-4.1855,-4.1854,0,0,-4.1663,-4.1703,-4.1723,-4.1745,-4.1778,-4.1823,-4.189,-4.1939,-4.1971,-4.2003,-4.2059,-4.213,-4.2098,-4.2123,-4.211,-4.2159,-4.227,-4.2117,-4.2117,-4.2145,-4.2395,-4.2423,-4.2445,-4.225,-4.2254,-4.2257,-4.2393,0,-4.1794,-4.1913,-4.1903,-4.2015,-4.2069,-4.2034,-4.2092,-4.2119,-4.2124,-4.217,-4.2174,-4.2226,-4.2178,-4.2194,-4.224,-4.2247,-4.232,-4.2236,-4.2302,-4.2305,-4.2297,-4.2468,-4.2497,-4.2625,-4.2411,-4.2413,-4.2416,0,-4.1962,-4.2003,-4.2122,-4.2149,-4.2171,-4.2224,-4.2269,-4.2314,-4.2343,-4.2343,-4.2373,-4.2353,-4.242,-4.2357,-4.245,-4.2393,-4.2419,-4.2427,-4.2431,-4.2437,-4.2368,-4.248,-4.2666,-4.2685,-4.2443,-4.2441,-4.2439,0,-4.2078,-4.2162,-4.2244,-4.2264,-4.2297,-4.2335,-4.2351,-4.2377,-4.2408,-4.2446,-4.2466,-4.2511,-4.2536,-4.2571,-4.2564,-4.2518,-4.2659,-4.2595,-4.266,-4.2661,-4.2692,-4.269,-4.2886,-4.2708,-4.2707,-4.2707,-4.2706,0,-4.2226,-4.23,-4.2297,-4.2348,-4.243,-4.2417,-4.2498,-4.2509,-4.2533,-4.2584,-4.2555,-4.2604,-4.259,-4.2638,-4.2632,-4.2711,-4.2722,-4.2723,-4.2721,-4.2727,-4.2727,-4.2744,-4.2735,-4.2712,-4.2711,-4.271,-4.2709,0,-4.2369,-4.237,-4.2458,-4.2483,-4.2491,-4.255,-4.2571,-4.2619,-4.2622,-4.2687,-4.2702,-4.2706,-4.2762,-4.2758,-4.2819,-4.2815,-4.2912,-4.2898,-4.2903,-4.29,-4.2967,-4.2961,-4.3181,-4.321,-4.3012,-4.3014,-4.3015,0,-4.2464,-4.252,-4.2552,-4.2586,-4.2605,-4.2658,-4.269,-4.268,-4.2714,-4.2753,-4.2796,-4.2849,-4.2891,-4.298,-4.2988,-4.3035,-4.3023,-4.3097,-4.303,-4.3035,-4.3026,-4.3023,-4.3029,-4.3111,-4.3113,-4.3115,-4.3116,0,-4.2632,-4.263,-4.2678,-4.2727,-4.2766,-4.2804,-4.2838,-4.2866,-4.286,-4.2899,-4.2957,-4.2989,-4.3053,-4.3106,-4.3152,-4.3166,-4.3141,-4.3137,-4.3155,-4.3162,-4.3163,-4.3164,-4.294,-4.3132,-4.3131,-4.313,-4.3129,-4.3128,-4.2754,-4.2804,-4.2835,-4.2889,-4.2914,-4.2948,-4.2994,-4.3004,-4.3052,-4.3105,-4.3095,-4.316,-4.3188,-4.3247,-4.3266,-4.3316,-4.3289,-4.3314,-4.3321,-4.3328,-4.3336,-4.3154,-4.3323,-4.3323,-4.3323,-4.3322,-4.3322,0,-4.2922,-4.2941,-4.2991,-4.3041,-4.3085,-4.3058,-4.3095,-4.3132,-4.319,-4.322,-4.3263,-4.3329,-4.3381,-4.3393,-4.3443,-4.348,-4.347,-4.3494,-4.3491,-4.3495,-4.3357,-4.3337,-4.3501,-4.3501,-4.3501,-4.3501,-4.3501,-4.3501,-4.3014,-4.3097,-4.3099,-4.3194,-4.3212,-4.3276,-4.33,-4.333,-4.3354,-4.343,-4.3474,-4.3482,-4.3505,-4.3557,-4.3603,-4.3605,-4.3625,-4.3654,-4.3652,-4.3522,-4.3505,-4.3487,-4.3469,-4.3658,-4.3658,-4.3786,-4.3787,-4.3788]}]]